FW5955 Weather Reports


time (UTC)temp
C
wind
direction
speed
KPH
gust
KPH
rain 1hr
cm
rain 24hr
cm
rain mn
cm
humidity
%
barometer
mb
20260902093041 13 79 0.0 3.2 0.03 0.03 0.03 94 1022.0
20260902091540 13 248 0.0 1.6 0.03 0.03 0.03 94 1021.8
20260902090039 13 340 0.0 3.2 0.03 0.03 0.03 94 1021.8
20260902084536 13 80 0.0 1.6 0.03 0.03 0.03 94 1021.5
20260902083034 13 267 0.0 3.2 0.00 0.00 0.00 94 1021.5
20260902081544 13 114 0.0 0.0 0.00 0.00 0.00 94 1021.4
20260902080034 13 115 0.0 0.0 0.00 0.00 0.00 93 1021.3
20260902074530 13 115 0.0 0.0 0.00 0.00 0.00 93 1021.2
20260902073028 13 351 0.0 6.4 0.00 0.00 0.00 93 1021.2
20260902071534 13 38 0.0 4.8 0.00 0.00 0.00 93 1021.1
20260902070026 13 140 0.0 1.6 0.00 0.00 0.00 93 1021.0
20260902064523 13 69 0.0 0.0 0.00 0.00 0.00 93 1020.8
20260902063023 13 65 0.0 1.6 0.00 0.00 0.00 93 1020.7
20260902061519 13 39 0.0 3.2 0.00 0.00 0.00 93 1020.6
20260902060018 13 49 0.0 4.8 0.00 0.00 0.00 93 1020.5
20260902054517 14 54 1.6 6.4 0.00 0.00 0.00 93 1020.4
20260902053016 13 68 0.0 9.7 0.00 0.00 0.00 93 1020.3
20260902051514 14 120 0.0 8.0 0.00 0.00 0.00 93 1020.2
20260902050019 14 48 1.6 8.0 0.00 0.00 0.00 93 1020.1
20260902044532 14 40 1.6 6.4 0.00 0.00 0.00 93 1020.2
20260902043010 14 49 0.0 4.8 0.00 0.00 0.00 93 1020.1
20260902041512 13 49 0.0 1.6 0.00 0.00 0.00 93 1020.0
20260902040007 13 61 0.0 0.0 0.00 0.00 0.00 93 1020.0
20260902034506 14 61 0.0 1.6 0.00 0.00 0.00 93 1020.0
20260902033005 14 58 0.0 1.6 0.00 0.00 0.00 93 1019.9
20260902031508 14 59 0.0 0.0 0.00 0.00 0.00 92 1019.9
20260902030002 14 61 0.0 1.6 0.00 0.00 0.00 92 1019.8
20260902024613 14 51 0.0 4.8 0.00 0.00 0.00 92 1019.8
20260902023100 14 65 0.0 3.2 0.00 0.00 0.00 92 1019.8
20260902021600 14 262 0.0 1.6 0.00 0.00 0.00 92 1019.8
20260902020126 14 141 0.0 1.6 0.00 0.00 0.00 92 1019.7
20260902014601 15 33 0.0 1.6 0.00 0.00 0.00 92 1019.6
20260902013056 15 344 0.0 1.6 0.00 0.00 0.00 92 1019.5
20260902011555 15 344 0.0 0.0 0.00 0.00 0.00 92 1019.4
20260902010054 15 3 0.0 1.6 0.00 0.00 0.00 91 1019.3
20260902004552 15 60 0.0 0.0 0.00 0.00 0.00 90 1019.2
20260902003050 16 270 0.0 1.6 0.00 0.00 0.00 89 1019.0
20260902001550 16 252 0.0 4.8 0.00 0.00 0.00 90 1019.0
20260902000049 16 276 0.0 3.2 0.00 0.00 0.00 90 1019.0
20260901234602 16 264 0.0 4.8 0.00 0.00 0.00 90 1018.9
20260901233146 17 276 0.0 1.6 0.00 0.00 0.00 89 1018.7
20260901231545 17 325 0.0 1.6 0.00 0.00 0.00 88 1018.4
20260901230049 17 270 0.0 4.8 0.00 0.00 0.00 87 1018.3
20260901224547 18 255 1.6 8.0 0.00 0.00 0.00 84 1018.2
20260901223049 18 262 3.2 11.3 0.00 0.00 0.00 82 1018.3
20260901221606 19 256 3.2 9.7 0.00 0.00 0.00 81 1018.2
20260901220042 19 243 6.4 11.3 0.00 0.00 0.00 79 1018.2
20260901214539 20 258 4.8 12.9 0.00 0.00 0.00 78 1018.0
20260901213040 20 223 6.4 14.5 0.00 0.00 0.00 77 1017.9
20260901211538 20 252 6.4 12.9 0.00 0.00 0.00 76 1017.9
20260901210038 20 229 6.4 16.1 0.00 0.00 0.00 79 1017.7
20260901204537 20 285 6.4 11.3 0.00 0.00 0.00 81 1017.6
20260901203048 20 222 6.4 11.3 0.00 0.00 0.00 81 1017.7
20260901201545 20 229 4.8 12.9 0.00 0.00 0.00 82 1017.6
20260901200035 20 237 6.4 16.1 0.00 0.00 0.00 82 1017.6
20260901194534 20 247 8.0 12.9 0.00 0.00 0.00 81 1017.6
20260901193034 21 205 4.8 16.1 0.00 0.00 0.00 78 1017.5
20260901191534 21 253 8.0 16.1 0.00 0.00 0.00 80 1017.4
20260901190041 20 236 8.0 16.1 0.00 0.00 0.00 81 1017.4
20260901184535 20 245 8.0 14.5 0.00 0.00 0.00 80 1017.4
20260901183034 20 204 6.4 16.1 0.00 0.00 0.00 80 1017.2
20260901181532 20 250 9.7 14.5 0.00 0.00 0.00 79 1017.4
20260901180031 19 256 8.0 19.3 0.00 0.00 0.00 81 1017.6
20260901174533 20 243 6.4 12.9 0.00 0.00 0.00 82 1017.6
20260901173030 19 193 4.8 12.9 0.00 0.00 0.00 83 1017.7
20260901171530 19 252 6.4 12.9 0.00 0.00 0.00 83 1017.7
20260901170030 19 205 4.8 11.3 0.00 0.00 0.00 82 1017.8
20260901164529 20 264 4.8 14.5 0.00 0.00 0.00 80 1017.7
20260901163028 20 255 6.4 20.9 0.00 0.00 0.00 81 1017.5
20260901161537 20 208 6.4 16.1 0.00 0.00 0.00 80 1017.7
20260901160041 20 182 8.0 17.7 0.00 0.00 0.00 77 1017.7
20260901154527 20 233 6.4 19.3 0.00 0.00 0.00 78 1017.9
20260901153027 21 231 9.7 20.9 0.00 0.00 0.00 74 1017.9
20260901151525 20 236 9.7 17.7 0.00 0.00 0.00 73 1018.0
20260901150029 20 223 6.4 14.5 0.00 0.00 0.00 74 1017.9
20260901144521 20 168 6.4 17.7 0.00 0.00 0.00 72 1017.8
20260901143021 20 181 4.8 12.9 0.00 0.00 0.00 73 1017.8
20260901141519 20 127 4.8 11.3 0.00 0.00 0.00 73 1017.8
20260901140017 21 37 0.0 1.6 0.00 0.00 0.00 78 1017.8
20260901134528 20 141 0.0 4.8 0.00 0.00 0.00 77 1017.8
20260901133013 20 131 0.0 4.8 0.00 0.00 0.00 79 1017.7
20260901131513 20 162 0.0 6.4 0.00 0.00 0.00 78 1017.8
20260901130007 19 279 1.6 8.0 0.00 0.00 0.00 80 1017.7
20260901124504 18 250 1.6 6.4 0.00 0.00 0.00 80 1017.7
20260901123002 18 243 0.0 4.8 0.00 0.00 0.00 83 1017.8
20260901121600 18 233 1.6 8.0 0.00 0.00 0.00 85 1017.8
20260901120104 17 253 1.6 6.4 0.00 0.00 0.00 84 1017.8
20260901114555 17 259 4.8 9.7 0.00 0.00 0.00 85 1017.5
20260901113111 17 230 3.2 8.0 0.00 0.00 0.00 86 1017.4
20260901111549 16 226 3.2 8.0 0.00 0.00 0.00 88 1017.5
20260901104545 15 260 1.6 4.8 0.00 0.00 0.00 91 1017.4
20260901103037 14 272 1.6 3.2 0.00 0.00 0.00 92 1017.5
20260901101559 12 15 0.0 0.0 0.00 0.00 0.00 93 1017.4
20260901100037 11 14 0.0 1.6 0.00 0.00 0.00 92 1017.4
20260901094535 11 13 0.0 1.6 0.00 0.00 0.00 93 1017.3